,,Stat6,,Stat2,,Stat8,,Stat9,,Stat10,,Wind1,,Wind1,
time,status,PA1M_AVG,status,PR1M_SUM,status,RH1M_AVG,status,SR1M_AVG,status,TA1M_AVG,status,W1dAve1m,status,W1sAve1m,
2008-06-11, 00:00:00,VALID,918.901,VALID,0,VALID,100,VALID,-0.101885,VALID,20.3993,VALID,309,VALID,0,
2008-06-11, 00:01:00,VALID,918.9,VALID,0,VALID,100,VALID,-0.0849042,VALID,20.4155,VALID,309,VALID,0,
2008-06-11, 00:02:00,VALID,918.906,VALID,0,VALID,100,VALID,-0.118866,VALID,20.422,VALID,310,VALID,0,
2008-06-11, 00:03:00,VALID,918.897,VALID,0,VALID,100,VALID,-0.0849042,VALID,20.4317,VALID,310,VALID,0,
2008-06-11, 00:04:00,VALID,918.897,VALID,0,VALID,100,VALID,-0.0509425,VALID,20.438,VALID,310,VALID,0,
2008-06-11, 00:05:00,VALID,918.897,VALID,0,VALID,100,VALID,-0.101885,VALID,20.432,VALID,311,VALID,0,
2008-06-11, 00:06:00,VALID,918.886,VALID,0,VALID,100,VALID,-0.0679233,VALID,20.3963,VALID,312,VALID,0,
2008-06-11, 00:07:00,VALID,918.874,VALID,0,VALID,100,VALID,-0.0849042,VALID,20.3898,VALID,311,VALID,0,
2008-06-11, 00:08:00,VALID,918.853,VALID,0,VALID,100,VALID,-0.0509425,VALID,20.3988,VALID,311,VALID,0,
2008-06-11, 00:09:00,VALID,918.822,VALID,0,VALID,100,VALID,0.0339617,VALID,20.3912,VALID,311,VALID,0,
2008-06-11, 00:10:00,VALID,918.797,VALID,0,VALID,100,VALID,-0.0169808,VALID,20.4177,VALID,307,VALID,0,
2008-06-11, 00:11:00,VALID,918.769,VALID,0,VALID,100,VALID,0.0679233,VALID,20.4232,VALID,306,VALID,0,
2008-06-11, 00:12:00,VALID,918.756,VALID,0,VALID,100,VALID,0.0339617,VALID,20.424,VALID,306,VALID,0,
2008-06-11, 00:13:00,VALID,918.744,VALID,0,VALID,100,VALID,0.0169808,VALID,20.4169,VALID,328,VALID,0.120094,
2008-06-11, 00:14:00,VALID,918.725,VALID,0,VALID,100,VALID,0,VALID,20.3915,VALID,8,VALID,0.189103,
2008-06-11, 00:15:00,VALID,918.709,VALID,0,VALID,100,VALID,0.0169808,VALID,20.3842,VALID,9,VALID,0,
2008-06-11, 00:16:00,VALID,918.689,VALID,0,VALID,100,VALID,0,VALID,20.3983,VALID,12,VALID,0,
2008-06-11, 00:17:00,VALID,918.689,VALID,0,VALID,100,VALID,0.0169808,VALID,20.3947,VALID,12,VALID,0,
2008-06-11, 00:18:00,VALID,918.684,VALID,0,VALID,100,VALID,0.0339617,VALID,20.391,VALID,12,VALID,0,
2008-06-11, 00:19:00,VALID,918.678,VALID,0,VALID,100,VALID,0.0339617,VALID,20.3815,VALID,12,VALID,0,
2008-06-11, 00:20:00,VALID,918.699,VALID,0,VALID,100,VALID,0,VALID,20.3785,VALID,12,VALID,0,
2008-06-11, 00:21:00,VALID,918.689,VALID,0,VALID,100,VALID,0,VALID,20.3885,VALID,12,VALID,0,
2008-06-11, 00:22:00,VALID,918.686,VALID,0,VALID,100,VALID,0.0169808,VALID,20.3845,VALID,12,VALID,0,
2008-06-11, 00:23:00,VALID,918.683,VALID,0,VALID,100,VALID,0.0339617,VALID,20.388,VALID,14,VALID,0,
2008-06-11, 00:24:00,VALID,918.671,VALID,0,VALID,100,VALID,0.0339617,VALID,20.359,VALID,14,VALID,0,
2008-06-11, 00:25:00,VALID,918.667,VALID,0,VALID,100,VALID,0,VALID,20.3396,VALID,14,VALID,0,
2008-06-11, 00:26:00,VALID,918.671,VALID,0,VALID,100,VALID,0,VALID,20.3433,VALID,14,VALID,0,
2008-06-11, 00:27:00,VALID,918.67,VALID,0,VALID,100,VALID,0,VALID,20.3331,VALID,14,VALID,0,
2008-06-11, 00:28:00,VALID,918.655,VALID,0,VALID,100,VALID,0.0339617,VALID,20.3293,VALID,14,VALID,0,
2008-06-11, 00:29:00,VALID,918.649,VALID,0,VALID,100,VALID,0.0679233,VALID,20.3393,VALID,14,VALID,0,
2008-06-11, 00:30:00,VALID,918.63,VALID,0,VALID,100,VALID,0.0339617,VALID,20.3328,VALID,13,VALID,0.0962271,
2008-06-11, 00:31:00,VALID,918.615,VALID,0,VALID,100,VALID,0.0679233,VALID,20.3391,VALID,4,VALID,0.421875,
2008-06-11, 00:32:00,VALID,918.614,VALID,0,VALID,100,VALID,0.0169808,VALID,20.3191,VALID,10,VALID,0.068314,
2008-06-11, 00:33:00,VALID,918.579,VALID,0,VALID,100,VALID,0.0169808,VALID,20.3198,VALID,10,VALID,0,
2008-06-11, 00:34:00,VALID,918.551,VALID,0,VALID,100,VALID,0.0169808,VALID,20.2771,VALID,10,VALID,0.00996094,
2008-06-11, 00:35:00,VALID,918.549,VALID,0,VALID,100,VALID,0.0169808,VALID,20.2322,VALID,14,VALID,0.443132,
2008-06-11, 00:36:00,VALID,918.567,VALID,0,VALID,100,VALID,0.0339617,VALID,20.2035,VALID,14,VALID,0.00236192,
2008-06-11, 00:37:00,VALID,918.596,VALID,0,VALID,100,VALID,0.0339617,VALID,20.173,VALID,14,VALID,0.0813954,
2008-06-11, 00:38:00,VALID,918.607,VALID,0,VALID,100,VALID,0,VALID,20.1608,VALID,14,VALID,0.00300481,
2008-06-11, 00:39:00,VALID,918.613,VALID,0,VALID,100,VALID,0.0509425,VALID,20.1441,VALID,14,VALID,0,
2008-06-11, 00:40:00,VALID,918.616,VALID,0,VALID,100,VALID,0.0169808,VALID,20.1414,VALID,14,VALID,0,
2008-06-11, 00:41:00,VALID,918.58,VALID,0,VALID,100,VALID,0.0339617,VALID,20.1444,VALID,14,VALID,0,
2008-06-11, 00:42:00,VALID,918.552,VALID,0,VALID,100,VALID,0,VALID,20.1641,VALID,14,VALID,0,
2008-06-11, 00:43:00,VALID,918.524,VALID,0,VALID,100,VALID,0.0169808,VALID,20.1863,VALID,14,VALID,0,
2008-06-11, 00:44:00,VALID,918.496,VALID,0,VALID,100,VALID,0.0339617,VALID,20.1765,VALID,14,VALID,0,
2008-06-11, 00:45:00,VALID,918.468,VALID,0,VALID,100,VALID,0.0509425,VALID,20.183,VALID,14,VALID,0,
2008-06-11, 00:46:00,VALID,918.457,VALID,0,VALID,100,VALID,0.0339617,VALID,20.2063,VALID,14,VALID,0,
2008-06-11, 00:47:00,VALID,918.461,VALID,0,VALID,100,VALID,0.0169808,VALID,20.2058,VALID,14,VALID,0,
2008-06-11, 00:48:00,VALID,918.461,VALID,0,VALID,100,VALID,-0.0169808,VALID,20.216,VALID,14,VALID,0,
2008-06-11, 00:49:00,VALID,918.457,VALID,0,VALID,100,VALID,0.0169808,VALID,20.216,VALID,14,VALID,0,
2008-06-11, 00:50:00,VALID,918.456,VALID,0,VALID,100,VALID,0,VALID,20.223,VALID,14,VALID,0,
2008-06-11, 00:51:00,VALID,918.461,VALID,0,VALID,100,VALID,0.0169808,VALID,20.2093,VALID,14,VALID,0,
2008-06-11, 00:52:00,VALID,918.462,VALID,0,VALID,100,VALID,0.0509425,VALID,20.1833,VALID,14,VALID,0,
2008-06-11, 00:53:00,VALID,918.461,VALID,0,VALID,100,VALID,-0.0169808,VALID,20.1676,VALID,14,VALID,0,
2008-06-11, 00:54:00,VALID,918.437,VALID,0,VALID,100,VALID,-0.0849042,VALID,20.1554,VALID,14,VALID,0,
2008-06-11, 00:55:00,VALID,918.436,VALID,0,VALID,100,VALID,-0.0509425,VALID,20.1424,VALID,14,VALID,0,
2008-06-11, 00:56:00,VALID,918.415,VALID,0,VALID,100,VALID,-0.0509425,VALID,20.1294,VALID,14,VALID,0,
2008-06-11, 00:57:00,VALID,918.411,VALID,0,VALID,100,VALID,-0.0849042,VALID,20.1396,VALID,14,VALID,0,
2008-06-11, 00:58:00,VALID,918.377,VALID,0,VALID,100,VALID,-0.0339617,VALID,20.1494,VALID,14,VALID,0,
2008-06-11, 00:59:00,VALID,918.353,VALID,0,VALID,100,VALID,-0.0169808,VALID,20.1489,VALID,14,VALID,0,
2008-06-11, 01:00:00,VALID,918.303,VALID,0,VALID,100,VALID,0,VALID,20.1356,VALID,14,VALID,0,
2008-06-11, 01:01:00,VALID,918.264,VALID,0,VALID,100,VALID,-0.0849042,VALID,20.1324,VALID,14,VALID,0,
2008-06-11, 01:02:00,VALID,918.223,VALID,0,VALID,100,VALID,-0.0169808,VALID,20.1324,VALID,14,VALID,0,
2008-06-11, 01:03:00,VALID,918.188,VALID,0,VALID,100,VALID,-0.0169808,VALID,20.1291,VALID,14,VALID,0,
2008-06-11, 01:04:00,VALID,918.161,VALID,0,VALID,100,VALID,0,VALID,20.1356,VALID,14,VALID,0,
2008-06-11, 01:05:00,VALID,918.155,VALID,0,VALID,100,VALID,-0.0169808,VALID,20.1486,VALID,14,VALID,0,
2008-06-11, 01:06:00,VALID,918.121,VALID,0,VALID,100,VALID,-0.0509425,VALID,20.1551,VALID,14,VALID,0,
2008-06-11, 01:07:00,VALID,918.11,VALID,0,VALID,100,VALID,-0.0509425,VALID,20.1651,VALID,14,VALID,0,
2008-06-11, 01:08:00,VALID,918.109,VALID,0,VALID,100,VALID,-0.0339617,VALID,20.1653,VALID,14,VALID,0,
2008-06-11, 01:09:00,VALID,918.112,VALID,0,VALID,100,VALID,-0.0509425,VALID,20.1426,VALID,14,VALID,0,
2008-06-11, 01:10:00,VALID,918.1,VALID,0,VALID,100,VALID,-0.0169808,VALID,20.1294,VALID,14,VALID,0,
2008-06-11, 01:11:00,VALID,918.062,VALID,0,VALID,100,VALID,-0.0509425,VALID,20.1102,VALID,14,VALID,0,
2008-06-11, 01:12:00,VALID,918.021,VALID,0,VALID,100,VALID,-0.0849042,VALID,20.0805,VALID,14,VALID,0,
2008-06-11, 01:13:00,VALID,917.978,VALID,0,VALID,100,VALID,-0.0679233,VALID,20.0675,VALID,14,VALID,0,
2008-06-11, 01:14:00,VALID,917.943,VALID,0,VALID,100,VALID,-0.0679233,VALID,20.0221,VALID,14,VALID,0,
2008-06-11, 01:15:00,VALID,917.905,VALID,0,VALID,100,VALID,-0.0849042,VALID,19.9831,VALID,15,VALID,0,
2008-06-11, 01:16:00,VALID,917.888,VALID,0,VALID,100,VALID,-0.0339617,VALID,19.9509,VALID,16,VALID,0,
2008-06-11, 01:17:00,VALID,917.872,VALID,0,VALID,100,VALID,-0.0679233,VALID,19.9257,VALID,23,VALID,0.436384,
2008-06-11, 01:18:00,VALID,917.868,VALID,0,VALID,100,VALID,-0.0509425,VALID,19.9055,VALID,34,VALID,0.433689,
2008-06-11, 01:19:00,VALID,917.861,VALID,0,VALID,100,VALID,-0.0849042,VALID,19.8665,VALID,36,VALID,0.0483631,
2008-06-11, 01:20:00,VALID,917.866,VALID,0,VALID,100,VALID,-0.0679233,VALID,19.8601,VALID,63,VALID,0.411719,
2008-06-11, 01:21:00,VALID,917.856,VALID,0,VALID,100,VALID,-0.0339617,VALID,19.8635,VALID,74,VALID,0.0125762,
2008-06-11, 01:22:00,VALID,917.844,VALID,0,VALID,100,VALID,-0.0339617,VALID,19.8471,VALID,74,VALID,0,
2008-06-11, 01:23:00,VALID,917.841,VALID,0,VALID,100,VALID,-0.0169808,VALID,19.8398,VALID,74,VALID,0,
2008-06-11, 01:24:00,VALID,917.861,VALID,0,VALID,100,VALID,0.0849042,VALID,19.8388,VALID,74,VALID,0,
2008-06-11, 01:25:00,VALID,917.868,VALID,0,VALID,100,VALID,0.0679233,VALID,19.8685,VALID,74,VALID,0,
2008-06-11, 01:26:00,VALID,917.862,VALID,0,VALID,100,VALID,0.0679233,VALID,19.8937,VALID,74,VALID,0,
2008-06-11, 01:27:00,VALID,917.832,VALID,0,VALID,100,VALID,0.101885,VALID,19.9197,VALID,74,VALID,0,
2008-06-11, 01:28:00,VALID,917.803,VALID,0,VALID,100,VALID,0.0679233,VALID,19.9394,VALID,74,VALID,0,
2008-06-11, 01:29:00,VALID,917.77,VALID,0,VALID,100,VALID,0.0849042,VALID,19.9551,VALID,73,VALID,0,
2008-06-11, 01:30:00,VALID,917.739,VALID,0,VALID,100,VALID,0.0679233,VALID,19.9429,VALID,69,VALID,0,
2008-06-11, 01:31:00,VALID,917.724,VALID,0,VALID,100,VALID,0.101885,VALID,19.9262,VALID,69,VALID,0.22247,
2008-06-11, 01:32:00,VALID,917.721,VALID,0,VALID,100,VALID,0.0679233,VALID,19.8937,VALID,69,VALID,0,
2008-06-11, 01:33:00,VALID,917.732,VALID,0,VALID,100,VALID,0.101885,VALID,19.8845,VALID,69,VALID,0,
2008-06-11, 01:34:00,VALID,917.743,VALID,0,VALID,100,VALID,0.0849042,VALID,19.8583,VALID,69,VALID,0,
2008-06-11, 01:35:00,VALID,917.743,VALID,0,VALID,100,VALID,0.0339617,VALID,19.8418,VALID,69,VALID,0,
2008-06-11, 01:36:00,VALID,917.745,VALID,0,VALID,100,VALID,0.0509425,VALID,19.8258,VALID,69,VALID,0,
2008-06-11, 01:37:00,VALID,917.737,VALID,0,VALID,100,VALID,0.0849042,VALID,19.8323,VALID,69,VALID,0,
2008-06-11, 01:38:00,VALID,917.753,VALID,0,VALID,100,VALID,0.0339617,VALID,19.8558,VALID,48,VALID,0,
2008-06-11, 01:39:00,VALID,917.744,VALID,0,VALID,100,VALID,0.0169808,VALID,19.8136,VALID,44,VALID,0,
2008-06-11, 01:40:00,VALID,917.744,VALID,0,VALID,100,VALID,0,VALID,19.8104,VALID,44,VALID,0,
2008-06-11, 01:41:00,VALID,917.736,VALID,0,VALID,100,VALID,-0.0339617,VALID,19.7936,VALID,44,VALID,0,
2008-06-11, 01:42:00,VALID,917.728,VALID,0,VALID,100,VALID,0.0169808,VALID,19.8139,VALID,44,VALID,0,
2008-06-11, 01:43:00,VALID,917.708,VALID,0,VALID,100,VALID,-0.0339617,VALID,19.8266,VALID,36,VALID,0.0691692,
2008-06-11, 01:44:00,VALID,917.694,VALID,0,VALID,100,VALID,-0.0339617,VALID,19.8036,VALID,1,VALID,0.281822,
2008-06-11, 01:45:00,VALID,917.665,VALID,0,VALID,100,VALID,-0.0169808,VALID,19.7849,VALID,347,VALID,0,
2008-06-11, 01:46:00,VALID,917.65,VALID,0,VALID,100,VALID,0,VALID,19.7909,VALID,346,VALID,0,
2008-06-11, 01:47:00,VALID,917.621,VALID,0,VALID,100,VALID,-0.0339617,VALID,19.8206,VALID,346,VALID,0,
2008-06-11, 01:48:00,VALID,917.602,VALID,0,VALID,100,VALID,-0.0169808,VALID,19.8366,VALID,346,VALID,0,
2008-06-11, 01:49:00,VALID,917.578,VALID,0,VALID,100,VALID,0,VALID,19.8298,VALID,346,VALID,0,
2008-06-11, 01:50:00,VALID,917.559,VALID,0,VALID,100,VALID,-0.0169808,VALID,19.8296,VALID,346,VALID,0,
2008-06-11, 01:51:00,VALID,917.549,VALID,0,VALID,100,VALID,-0.0169808,VALID,19.8266,VALID,346,VALID,0,
2008-06-11, 01:52:00,VALID,917.536,VALID,0,VALID,100,VALID,0,VALID,19.8064,VALID,345,VALID,0,
2008-06-11, 01:53:00,VALID,917.547,VALID,0,VALID,100,VALID,0.0169808,VALID,19.7902,VALID,345,VALID,0,
2008-06-11, 01:54:00,VALID,917.565,VALID,0,VALID,100,VALID,0.0169808,VALID,19.7739,VALID,327,VALID,0,
2008-06-11, 01:55:00,VALID,917.57,VALID,0,VALID,100,VALID,0.0339617,VALID,19.7642,VALID,302,VALID,0,
2008-06-11, 01:56:00,VALID,917.565,VALID,0,VALID,100,VALID,0.0169808,VALID,19.7704,VALID,302,VALID,0,
2008-06-11, 01:57:00,VALID,917.563,VALID,0,VALID,100,VALID,0.0169808,VALID,19.7742,VALID,302,VALID,0,
2008-06-11, 01:58:00,VALID,917.554,VALID,0,VALID,100,VALID,0,VALID,19.7772,VALID,302,VALID,0,
2008-06-11, 01:59:00,VALID,917.537,VALID,0,VALID,100,VALID,0.0169808,VALID,19.7612,VALID,302,VALID,0,
2008-06-11, 02:00:00,VALID,917.505,VALID,0,VALID,100,VALID,0.0169808,VALID,19.7547,VALID,302,VALID,0,
2008-06-11, 02:01:00,VALID,917.489,VALID,0,VALID,100,VALID,0.0169808,VALID,19.739,VALID,302,VALID,0,
2008-06-11, 02:02:00,VALID,917.476,VALID,0,VALID,100,VALID,0.0169808,VALID,19.709,VALID,225,VALID,0,
2008-06-11, 02:03:00,VALID,917.486,VALID,0,VALID,100,VALID,0,VALID,19.6896,VALID,205,VALID,0,
2008-06-11, 02:04:00,VALID,917.5,VALID,0,VALID,100,VALID,-0.0339617,VALID,19.6641,VALID,205,VALID,0,
2008-06-11, 02:05:00,VALID,917.496,VALID,0,VALID,100,VALID,0,VALID,19.6252,VALID,205,VALID,0,
2008-06-11, 02:06:00,VALID,917.498,VALID,0,VALID,100,VALID,0.0169808,VALID,19.589,VALID,205,VALID,0,
2008-06-11, 02:07:00,VALID,917.487,VALID,0,VALID,100,VALID,0.0169808,VALID,19.5733,VALID,205,VALID,0,
2008-06-11, 02:08:00,VALID,917.479,VALID,0,VALID,100,VALID,0,VALID,19.5341,VALID,205,VALID,0,
2008-06-11, 02:09:00,VALID,917.451,VALID,0,VALID,100,VALID,-0.0169808,VALID,19.5019,VALID,205,VALID,0,
2008-06-11, 02:10:00,VALID,917.417,VALID,0,VALID,100,VALID,0,VALID,19.4592,VALID,205,VALID,0,
2008-06-11, 02:11:00,VALID,917.388,VALID,0,VALID,100,VALID,0,VALID,19.4265,VALID,205,VALID,0,
2008-06-11, 02:12:00,VALID,917.365,VALID,0,VALID,100,VALID,0.0169808,VALID,19.3651,VALID,205,VALID,0,
2008-06-11, 02:13:00,VALID,917.354,VALID,0,VALID,100,VALID,0,VALID,19.2713,VALID,205,VALID,0,
2008-06-11, 02:14:00,VALID,917.346,VALID,0,VALID,100,VALID,0.0169808,VALID,19.2034,VALID,205,VALID,0,
2008-06-11, 02:15:00,VALID,917.318,VALID,0,VALID,100,VALID,0,VALID,19.1445,VALID,204,VALID,0,
2008-06-11, 02:16:00,VALID,917.313,VALID,0,VALID,100,VALID,-0.0169808,VALID,19.1348,VALID,161,VALID,0,
2008-06-11, 02:17:00,VALID,917.285,VALID,0,VALID,100,VALID,0.0169808,VALID,19.1255,VALID,141,VALID,0,
2008-06-11, 02:18:00,VALID,917.258,VALID,0,VALID,100,VALID,-0.0169808,VALID,19.0602,VALID,139,VALID,0,
2008-06-11, 02:19:00,VALID,917.254,VALID,0,VALID,100,VALID,-0.0169808,VALID,18.9856,VALID,138,VALID,0,
2008-06-11, 02:20:00,VALID,917.258,VALID,0,VALID,100,VALID,-0.0169808,VALID,18.9596,VALID,138,VALID,0,
2008-06-11, 02:21:00,VALID,917.272,VALID,0,VALID,100,VALID,0.0169808,VALID,18.9337,VALID,138,VALID,0,
2008-06-11, 02:22:00,VALID,917.273,VALID,0,VALID,100,VALID,0.0169808,VALID,18.8913,VALID,137,VALID,0,
2008-06-11, 02:23:00,VALID,917.272,VALID,0,VALID,100,VALID,0.0509425,VALID,18.8396,VALID,137,VALID,0,
2008-06-11, 02:24:00,VALID,917.248,VALID,0,VALID,100,VALID,0,VALID,18.7872,VALID,132,VALID,0,
2008-06-11, 02:25:00,VALID,917.223,VALID,0,VALID,100,VALID,0.0169808,VALID,18.7712,VALID,125,VALID,0,
2008-06-11, 02:26:00,VALID,917.18,VALID,0,VALID,100,VALID,0,VALID,18.7358,VALID,119,VALID,0,
2008-06-11, 02:27:00,VALID,917.172,VALID,0,VALID,100,VALID,0.0169808,VALID,18.6966,VALID,120,VALID,0,
2008-06-11, 02:28:00,VALID,917.149,VALID,0,VALID,100,VALID,-0.0169808,VALID,18.6774,VALID,128,VALID,0,
2008-06-11, 02:29:00,VALID,917.128,VALID,0,VALID,100,VALID,0,VALID,18.7001,VALID,125,VALID,0,
2008-06-11, 02:30:00,VALID,917.123,VALID,0,VALID,100,VALID,0.0339617,VALID,18.6969,VALID,132,VALID,0.706395,
2008-06-11, 02:31:00,VALID,917.086,VALID,0,VALID,100,VALID,0,VALID,18.6707,VALID,134,VALID,0.549964,
2008-06-11, 02:32:00,VALID,917.054,VALID,0,VALID,100,VALID,0.0339617,VALID,18.6447,VALID,129,VALID,0,
2008-06-11, 02:33:00,VALID,917.026,VALID,0,VALID,100,VALID,0.0169808,VALID,18.648,VALID,129,VALID,0,
2008-06-11, 02:34:00,VALID,916.992,VALID,0,VALID,100,VALID,0,VALID,18.6385,VALID,129,VALID,0,
2008-06-11, 02:35:00,VALID,916.958,VALID,0,VALID,100,VALID,0.0169808,VALID,18.6512,VALID,129,VALID,0,
2008-06-11, 02:36:00,VALID,916.932,VALID,0,VALID,100,VALID,0,VALID,18.6061,VALID,129,VALID,0,
2008-06-11, 02:37:00,VALID,916.906,VALID,0,VALID,100,VALID,0.0509425,VALID,18.6158,VALID,129,VALID,0,
2008-06-11, 02:38:00,VALID,916.899,VALID,0,VALID,100,VALID,0.0169808,VALID,18.6121,VALID,129,VALID,0,
2008-06-11, 02:39:00,VALID,916.911,VALID,0,VALID,100,VALID,0,VALID,18.6322,VALID,129,VALID,0,
2008-06-11, 02:40:00,VALID,916.911,VALID,0,VALID,100,VALID,-0.0509425,VALID,18.6355,VALID,129,VALID,0,
2008-06-11, 02:41:00,VALID,916.941,VALID,0,VALID,100,VALID,-0.0509425,VALID,18.616,VALID,129,VALID,0,
2008-06-11, 02:42:00,VALID,916.942,VALID,0,VALID,100,VALID,-0.0679233,VALID,18.5808,VALID,129,VALID,0,
2008-06-11, 02:43:00,VALID,916.946,VALID,0,VALID,100,VALID,-0.0169808,VALID,18.5579,VALID,129,VALID,0,
2008-06-11, 02:44:00,VALID,916.947,VALID,0,VALID,100,VALID,-0.0169808,VALID,18.5479,VALID,129,VALID,0,
2008-06-11, 02:45:00,VALID,916.934,VALID,0,VALID,100,VALID,-0.0339617,VALID,18.5085,VALID,129,VALID,0,
2008-06-11, 02:46:00,VALID,916.924,VALID,0,VALID,100,VALID,-0.0339617,VALID,18.4703,VALID,129,VALID,0,
2008-06-11, 02:47:00,VALID,916.942,VALID,0,VALID,100,VALID,0,VALID,18.3762,VALID,129,VALID,0,
2008-06-11, 02:48:00,VALID,916.962,VALID,0,VALID,100,VALID,0,VALID,18.2989,VALID,129,VALID,0,
2008-06-11, 02:49:00,VALID,916.99,VALID,0,VALID,100,VALID,-0.0509425,VALID,18.256,VALID,129,VALID,0,
2008-06-11, 02:50:00,VALID,917.028,VALID,0,VALID,100,VALID,-0.0169808,VALID,18.2234,VALID,129,VALID,0,
2008-06-11, 02:51:00,VALID,917.054,VALID,0,VALID,100,VALID,0,VALID,18.2266,VALID,129,VALID,0,
2008-06-11, 02:52:00,VALID,917.061,VALID,0,VALID,100,VALID,0,VALID,18.25,VALID,129,VALID,0,
2008-06-11, 02:53:00,VALID,917.055,VALID,0,VALID,100,VALID,0.0169808,VALID,18.2171,VALID,129,VALID,0,
2008-06-11, 02:54:00,VALID,917.051,VALID,0,VALID,100,VALID,-0.0339617,VALID,18.1715,VALID,129,VALID,0,
2008-06-11, 02:55:00,VALID,917.047,VALID,0,VALID,100,VALID,-0.0169808,VALID,18.133,VALID,129,VALID,0,
2008-06-11, 02:56:00,VALID,917.031,VALID,0,VALID,100,VALID,0,VALID,18.162,VALID,129,VALID,0,
2008-06-11, 02:57:00,VALID,917.018,VALID,0,VALID,100,VALID,0,VALID,18.2071,VALID,129,VALID,0,
2008-06-11, 02:58:00,VALID,916.997,VALID,0,VALID,100,VALID,-0.0169808,VALID,18.3176,VALID,129,VALID,0,
2008-06-11, 02:59:00,VALID,916.989,VALID,0,VALID,100,VALID,0,VALID,18.3952,VALID,129,VALID,0,
2008-06-11, 03:00:00,VALID,916.996,VALID,0,VALID,100,VALID,0,VALID,18.3498,VALID,129,VALID,0,
2008-06-11, 03:01:00,VALID,917.006,VALID,0,VALID,100,VALID,0,VALID,18.2817,VALID,129,VALID,0,
2008-06-11, 03:02:00,VALID,917.015,VALID,0,VALID,100,VALID,0.0339617,VALID,18.2556,VALID,129,VALID,0,
2008-06-11, 03:03:00,VALID,917.01,VALID,0,VALID,100,VALID,0.0339617,VALID,18.2363,VALID,129,VALID,0,
2008-06-11, 03:04:00,VALID,917.004,VALID,0,VALID,100,VALID,-0.0339617,VALID,18.1974,VALID,129,VALID,0,
2008-06-11, 03:05:00,VALID,916.976,VALID,0,VALID,100,VALID,0,VALID,18.1717,VALID,129,VALID,0,
2008-06-11, 03:06:00,VALID,916.956,VALID,0,VALID,100,VALID,0,VALID,18.1879,VALID,129,VALID,0,
2008-06-11, 03:07:00,VALID,916.953,VALID,0,VALID,100,VALID,-0.0169808,VALID,18.2264,VALID,129,VALID,0,
2008-06-11, 03:08:00,VALID,916.931,VALID,0,VALID,100,VALID,-0.0509425,VALID,18.2889,VALID,129,VALID,0,
2008-06-11, 03:09:00,VALID,916.918,VALID,0,VALID,100,VALID,-0.118866,VALID,18.2993,VALID,129,VALID,0,
2008-06-11, 03:10:00,VALID,916.909,VALID,0,VALID,100,VALID,-0.118866,VALID,18.2796,VALID,129,VALID,0,
2008-06-11, 03:11:00,VALID,916.929,VALID,0,VALID,100,VALID,-0.101885,VALID,18.2959,VALID,129,VALID,0,
2008-06-11, 03:12:00,VALID,916.936,VALID,0,VALID,100,VALID,-0.0849042,VALID,18.306,VALID,129,VALID,0,
2008-06-11, 03:13:00,VALID,916.94,VALID,0,VALID,100,VALID,-0.101885,VALID,18.2704,VALID,129,VALID,0,
2008-06-11, 03:14:00,VALID,916.94,VALID,0,VALID,100,VALID,-0.101885,VALID,18.2474,VALID,129,VALID,0,
2008-06-11, 03:15:00,VALID,916.921,VALID,0,VALID,100,VALID,-0.101885,VALID,18.2993,VALID,129,VALID,0,
2008-06-11, 03:16:00,VALID,916.905,VALID,0,VALID,100,VALID,-0.101885,VALID,18.3899,VALID,129,VALID,0,
2008-06-11, 03:17:00,VALID,916.872,VALID,0,VALID,100,VALID,-0.0849042,VALID,18.4478,VALID,129,VALID,0,
2008-06-11, 03:18:00,VALID,916.859,VALID,0,VALID,100,VALID,-0.101885,VALID,18.4937,VALID,129,VALID,0,
2008-06-11, 03:19:00,VALID,916.839,VALID,0,VALID,100,VALID,-0.101885,VALID,18.5523,VALID,129,VALID,0,
2008-06-11, 03:20:00,VALID,916.825,VALID,0,VALID,100,VALID,-0.101885,VALID,18.5977,VALID,129,VALID,0,
2008-06-11, 03:21:00,VALID,916.789,VALID,0,VALID,100,VALID,-0.101885,VALID,18.6202,VALID,129,VALID,0,
2008-06-11, 03:22:00,VALID,916.79,VALID,0,VALID,100,VALID,-0.101885,VALID,18.6172,VALID,129,VALID,0,
2008-06-11, 03:23:00,VALID,916.8,VALID,0,VALID,100,VALID,-0.0509425,VALID,18.5901,VALID,129,VALID,0,
2008-06-11, 03:24:00,VALID,916.803,VALID,0,VALID,100,VALID,-0.0169808,VALID,18.5704,VALID,129,VALID,0,
2008-06-11, 03:25:00,VALID,916.826,VALID,0,VALID,100,VALID,0.0169808,VALID,18.5412,VALID,129,VALID,0,
2008-06-11, 03:26:00,VALID,916.841,VALID,0,VALID,100,VALID,0.0339617,VALID,18.5183,VALID,129,VALID,0,
2008-06-11, 03:27:00,VALID,916.846,VALID,0,VALID,100,VALID,0.0169808,VALID,18.4863,VALID,129,VALID,0,
2008-06-11, 03:28:00,VALID,916.841,VALID,0,VALID,100,VALID,0.0169808,VALID,18.4728,VALID,129,VALID,0,
2008-06-11, 03:29:00,VALID,916.843,VALID,0,VALID,100,VALID,0.0169808,VALID,18.4437,VALID,129,VALID,0,
2008-06-11, 03:30:00,VALID,916.84,VALID,0,VALID,100,VALID,0,VALID,18.392,VALID,129,VALID,0,
2008-06-11, 03:31:00,VALID,916.842,VALID,0,VALID,100,VALID,-0.0169808,VALID,18.3107,VALID,129,VALID,0,
2008-06-11, 03:32:00,VALID,916.841,VALID,0,VALID,100,VALID,0,VALID,18.2037,VALID,129,VALID,0,
2008-06-11, 03:33:00,VALID,916.83,VALID,0,VALID,100,VALID,0,VALID,18.1779,VALID,129,VALID,0,
2008-06-11, 03:34:00,VALID,916.827,VALID,0,VALID,100,VALID,0.0169808,VALID,18.2653,VALID,129,VALID,0,
2008-06-11, 03:35:00,VALID,916.825,VALID,0,VALID,100,VALID,0.0679233,VALID,18.3234,VALID,129,VALID,0,
2008-06-11, 03:36:00,VALID,916.829,VALID,0,VALID,100,VALID,0.0169808,VALID,18.392,VALID,129,VALID,0,
2008-06-11, 03:37:00,VALID,916.808,VALID,0,VALID,100,VALID,0,VALID,18.4402,VALID,129,VALID,0,
2008-06-11, 03:38:00,VALID,916.806,VALID,0,VALID,100,VALID,-0.0339617,VALID,18.4798,VALID,129,VALID,0,
2008-06-11, 03:39:00,VALID,916.777,VALID,0,VALID,100,VALID,-0.118866,VALID,18.5065,VALID,129,VALID,0,
2008-06-11, 03:40:00,VALID,916.785,VALID,0,VALID,100,VALID,-0.118866,VALID,18.5553,VALID,129,VALID,0,
2008-06-11, 03:41:00,VALID,916.778,VALID,0,VALID,100,VALID,-0.101885,VALID,18.5975,VALID,129,VALID,0,
2008-06-11, 03:42:00,VALID,916.778,VALID,0,VALID,100,VALID,-0.0849042,VALID,18.5783,VALID,129,VALID,0,
2008-06-11, 03:43:00,VALID,916.794,VALID,0,VALID,100,VALID,-0.101885,VALID,18.5556,VALID,129,VALID,0,
2008-06-11, 03:44:00,VALID,916.793,VALID,0,VALID,100,VALID,-0.0849042,VALID,18.5685,VALID,136,VALID,0,
2008-06-11, 03:45:00,VALID,916.8,VALID,0,VALID,100,VALID,-0.0849042,VALID,18.5588,VALID,151,VALID,0,
2008-06-11, 03:46:00,VALID,916.781,VALID,0,VALID,100,VALID,-0.101885,VALID,18.5102,VALID,151,VALID,0,
2008-06-11, 03:47:00,VALID,916.776,VALID,0,VALID,100,VALID,-0.101885,VALID,18.4358,VALID,147,VALID,0,
2008-06-11, 03:48:00,VALID,916.754,VALID,0,VALID,100,VALID,-0.101885,VALID,18.4001,VALID,158,VALID,0.506076,
2008-06-11, 03:49:00,VALID,916.748,VALID,0,VALID,100,VALID,-0.118866,VALID,18.3901,VALID,162,VALID,1.01684,
2008-06-11, 03:50:00,VALID,916.749,VALID,0,VALID,100,VALID,-0.101885,VALID,18.4091,VALID,161,VALID,0.739195,
2008-06-11, 03:51:00,VALID,916.749,VALID,0,VALID,100,VALID,-0.101885,VALID,18.4191,VALID,149,VALID,0.612749,
2008-06-11, 03:52:00,VALID,916.749,VALID,0,VALID,100,VALID,-0.101885,VALID,18.4161,VALID,149,VALID,0,